www.pogodaiklimat.ru

Погода и климат >> Архив погоды >> Австралия >> Южная Австралия >> Олимпик Дэм


ПОГОДА в Олимпик Дэм

  • Прогноз погоды в Олимпик Дэм
  • Монитор погоды в Олимпик Дэм

АРХИВ ПОГОДЫ в Олимпик Дэм

Время (UTC), дата Ветер
(напр.,м/с)
 
Видим.   Явления Облачность Т
(С)
Тd
(С)
f
(%)
Тe
(С)
Тes
(С)
Комфортность P
(гПа)
Po
(гПа)
Тmin
(С)
Tmax
(С)
R
(мм)
R24
(мм)
S
(см)
01 18.06 Ю 5 н/о н/о +13.1 +5.5 60 +11 +11 1027.3 1015.2
02 18.06 Ю 6 н/о 5/5 1000 м
[]
+14.6 +3.7 48 +13 +13 1027.1 1015.0 +8.6
04 18.06 Ю 5 н/о н/о +15.3 +1.1 38 +14 +14 1025.3 1013.2
05 18.06 Ю 6 н/о н/о +15.4 +0.8 37 +14 +14 1024.9 1012.8
07 18.06 Ю 6 н/о н/о +14.3 +0.6 39 +13 +13 1025.2 1013.1
08 18.06 Ю 5 н/о н/о +13.3 +1.0 43 +12 +12 1025.6 1013.5
10 18.06 Ю 3 н/о н/о +11.0 +1.5 52 +9 +9 1026.3 1014.2
11 18.06 Ю 3 н/о н/о +9.5 +1.7 58 +8 +8 1026.4 1014.3
13 18.06 ЮВ 3 н/о н/о +7.5 +2.0 68 +5 +5 1026.3 1014.2
14 18.06 Ю 3 н/о н/о +6.5 +1.8 72 +4 +4 1026.3 1014.2 +15.9
16 18.06 Ю 2 н/о н/о +4.8 +1.7 80 +2 +2 1026.2 1014.1
17 18.06 Ю 2 н/о н/о +3.8 +1.5 85 +2 +2 1026.5 1014.4
19 18.06 Ю 2 н/о н/о +2.8 +1.3 90 -0 -0 1025.9 1013.8
20 18.06 Ю 2 н/о н/о +2.3 +1.0 91 -0 -0 1026.2 1014.1
22 18.06 Ю 2 н/о н/о +2.2 +1.3 94 -1 -1 1027.2 1015.1
23 18.06 Ю 2 н/о н/о +5.0 +3.7 91 +2 +2 1027.9 1015.7
01 19.06 ЮВ 2 н/о н/о +12.1 +3.3 55 +11 +11 1028.9 1016.7
02 19.06 Ю 1 н/о 10/10 1500 м
[]
+13.8 +1.5 43 +15 +15 1028.2 1016.0 +1.3
04 19.06 ЮЗ 2 н/о н/о +14.2 -0.3 37 +14 +14 1026.4 1014.3
05 19.06 ЮЗ 3 н/о 4/4 1500 м
[]
+15.4 -0.4 34 +15 +15 1025.7 1013.6
07 19.06 В 1 н/о н/о +14.7 -0.6 35 +15 +15 1025.5 1013.4
08 19.06 Ю 3 н/о н/о +12.8 -0.1 41 +12 +12 1025.7 1013.6
10 19.06 Ю 2 н/о н/о +8.3 +1.7 63 +7 +7 1026.5 1014.4
11 19.06 Ю 2 н/о н/о +7.4 +1.7 67 +6 +6 1026.8 1014.7
13 19.06 ЮВ 2 н/о н/о +5.4 +1.0 73 +3 +3 1027.0 1014.9
14 19.06 штиль 0 н/о н/о +4.2 +1.1 80 +3 +3 1026.8 1014.7 +15.7
16 19.06 штиль 0 н/о н/о +2.7 +0.3 84 +2 +2 1026.4 1014.3
17 19.06 штиль 0 н/о н/о +2.8 +0.5 85 +2 +2 1026.3 1014.2
19 19.06 штиль 0 н/о н/о +1.6 +0.1 90 0 0 1026.4 1014.3
20 19.06 СВ 1 н/о н/о +0.8 -0.6 90 0 0 1026.5 1014.4
22 19.06 ЮВ 2 н/о н/о +0.6 -0.7 91 -3 -3 1027.4 1015.3
23 19.06 штиль 0 н/о н/о +4.1 +0.8 79 +3 +3 1028.2 1016.0
01 20.06 СЗ 2 н/о н/о +11.3 +0.7 48 +10 +10 1028.6 1016.4
02 20.06 СЗ 2 н/о н/о +13.2 -0.4 39 +13 +13 1028.1 1015.9 +0.1
04 20.06 СЗ 2 н/о н/о +14.5 -1.6 33 +14 +14 1026.1 1014.0
05 20.06 СЗ 3 н/о н/о +14.7 -1.8 32 +14 +14 1025.8 1013.7
07 20.06 штиль 0 н/о н/о +15.5 -2.0 30 +16 +16 1025.7 1013.6
08 20.06 штиль 0 н/о н/о +13.2 -1.5 36 +13 +13 1026.0 1013.9
10 20.06 штиль 0 н/о н/о +6.9 +0.6 64 +6 +6 1026.8 1014.7
11 20.06 В 1 н/о н/о +5.5 +0.5 70 +5 +5 1027.3 1015.2
13 20.06 В 2 н/о н/о +4.1 +0.4 77 +1 +1 1027.6 1015.5
14 20.06 СВ 2 н/о н/о +4.9 +0.1 71 +2 +2 1027.6 1015.5 +15.9
16 20.06 СВ 3 н/о н/о +4.6 -0.8 68 +2 +2 1026.9 1014.8
17 20.06 С 2 н/о н/о +3.4 -1.0 73 +1 +1 1027.2 1015.1
19 20.06 СВ 3 н/о н/о +3.1 -0.7 76 -0 -0 1027.1 1015.0
20 20.06 СВ 3 н/о 5/5 1500 м
[]
+2.8 -1.4 74 -1 -1 1027.4 1015.3
22 20.06 В 1 н/о н/о +0.9 -1.3 85 0 0 1028.5 1016.3
23 20.06 штиль 0 н/о 10/0
[]
+6.9 +0.1 62 +6 +6 1029.5 1017.3
01 21.06 С 3 н/о н/о +12.5 +0.6 44 +11 +11 1030.4 1018.2
02 21.06 СЗ 3 н/о 10/0 2000 м
[]
+13.4 +0.4 41 +12 +12 1030.0 1017.8 +0.9
04 21.06 С 2 н/о н/о +15.3 -1.3 32 +16 +16 1028.0 1015.8
05 21.06 С 3 н/о н/о +16.0 -1.1 31 +16 +16 1027.5 1015.4
07 21.06 В 1 н/о н/о +15.8 -1.3 31 +17 +17 1027.9 1015.7
08 21.06 В 3 н/о н/о +13.7 -1.5 35 +13 +13 1028.0 1015.8
10 21.06 В 3 н/о н/о +9.8 -1.3 46 +8 +8 1028.8 1016.6
11 21.06 В 2 н/о 6/0 2000 м
[]
+7.9 -0.8 54 +6 +6 1029.1 1016.9
13 21.06 В 1 н/о н/о +8.4 +1.3 61 +8 +8 1029.3 1017.1
14 21.06 В 2 н/о 10/0 2000 м
[]
+9.9 +0.5 52 +9 +9 1029.0 1016.8 +16.4
16 21.06 СВ 3 н/о н/о +9.6 -0.3 50 +8 +8 1028.9 1016.7
17 21.06 СВ 2 н/о н/о +6.9 -0.5 59 +5 +5 1028.7 1016.5
19 21.06 В 2 н/о н/о +4.5 -1.3 66 +2 +2 1028.3 1016.1
20 21.06 В 1 н/о н/о +3.0 -1.4 73 +3 +3 1028.7 1016.5
22 21.06 ЮВ 2 н/о н/о +1.6 -1.1 82 -2 -2 1029.9 1017.7
23 21.06 штиль 0 н/о 8/0 2000 м
[]
+4.8 +0.2 72 +4 +4 1030.8 1018.6
01 22.06 СВ 4 н/о н/о +12.4 -2.6 35 +11 +11 1031.2 1019.0
02 22.06 СВ 5 н/о н/о +13.4 -2.9 32 +12 +12 1030.7 1018.5 +1.7
04 22.06 СВ 3 н/о н/о +14.6 -2.8 30 +14 +14 1028.1 1015.9
05 22.06 СВ 2 н/о н/о +14.9 -3.4 28 +15 +15 1027.3 1015.2
07 22.06 В 3 н/о н/о +14.7 -3.1 29 +14 +14 1027.5 1015.4
08 22.06 В 2 8000 м н/о +13.0 -2.9 33 +13 +13 1027.5 1015.4
10 22.06 штиль 0 н/о н/о +7.1 -1.1 56 +7 +7 1028.5 1016.3
11 22.06 Ю 1 н/о 5/0
[]
+6.4 -1.0 59 +7 +7 1028.8 1016.6
13 22.06 штиль 0 н/о н/о +4.2 -1.0 69 +4 +4 1028.4 1016.2
14 22.06 ЮВ 3 н/о н/о +4.8 -1.0 66 +2 +2 1028.3 1016.1 +15.4
16 22.06 штиль 0 н/о н/о +3.4 -1.7 69 +3 +3 1028.0 1015.8
17 22.06 ЮВ 2 н/о н/о +3.4 -1.2 72 +1 +1 1027.9 1015.7
19 22.06 В 2 н/о н/о +1.0 -2.1 80 -2 -2 1028.5 1016.3
20 22.06 ЮВ 1 н/о н/о +0.8 -1.8 83 0 0 1028.8 1016.6
22 22.06 штиль 0 н/о н/о -0.1 -2.0 87 -1 -1 1029.8 1017.6
23 22.06 ЮВ 2 н/о н/о +5.1 +0.5 72 +3 +3 1029.7 1017.5
01 23.06 В 4 н/о н/о +12.0 +0.5 45 +10 +10 1030.0 1017.8
02 23.06 СВ 3 н/о н/о +12.6 -0.6 40 +12 +12 1029.6 1017.4 -0.5
04 23.06 В 3 н/о н/о +13.6 -2.8 32 +13 +13 1027.4 1015.3
05 23.06 ЮВ 4 н/о н/о +14.4 -2.5 31 +13 +13 1027.2 1015.1
07 23.06 В 4 н/о н/о +13.7 -3.1 31 +13 +13 1027.4 1015.3
08 23.06 ЮВ 3 н/о н/о +12.1 -2.9 35 +11 +11 1027.6 1015.5
10 23.06 В 4 н/о н/о +8.8 -2.8 44 +7 +7 1027.9 1015.7
11 23.06 ЮВ 3 н/о н/о +8.1 -2.0 49 +6 +6 1027.9 1015.7
13 23.06 ЮВ 3 н/о н/о +4.0 -1.0 70 +1 +1 1028.2 1016.0
14 23.06 В 3 н/о н/о +6.2 -1.7 57 +3 +3 1028.7 1016.5 +14.7
16 23.06 В 3 н/о н/о +4.8 -2.1 61 +2 +2 1028.2 1016.0
17 23.06 С 3 н/о н/о +3.5 -2.4 65 0 0 1028.5 1016.3
19 23.06 СВ 3 н/о н/о +2.5 -2.2 71 -1 -1 1028.4 1016.2
20 23.06 В 2 н/о 1/0
[]
+1.1 -3.4 72 -2 -2 1028.6 1016.4
22 23.06 СВ 2 н/о н/о +1.9 -2.1 75 -1 -1 1029.7 1017.5
23 23.06 СВ 3 н/о 9/0
[]
+4.3 -1.7 65 +1 +1 1029.9 1017.7
01 24.06 СВ 6 н/о н/о +9.5 -0.9 48 +6 +6 1029.8 1017.6
02 24.06 СВ 7 н/о 9/0
[]
+11.4 -1.4 41 +9 +9 1029.5 1017.3 +0.4
04 24.06 С 6 н/о н/о +12.8 -1.9 36 +11 +11 1027.6 1015.5
05 24.06 С 7 н/о 10/0
[]
+13.4 -2.5 33 +11 +11 1026.5 1014.4
07 24.06 С 6 н/о н/о +13.1 -2.0 35 +11 +11 1026.5 1014.4
08 24.06 С 5 н/о 10/0
[]
+12.4 -1.9 37 +11 +11 1026.9 1014.8
10 24.06 С 4 н/о н/о +11.7 -1.8 39 +10 +10 1027.1 1015.0
11 24.06 С 4 н/о 10/0
[]
+11.5 -1.6 40 +10 +10 1027.6 1015.5
13 24.06 С 3 н/о н/о +11.1 -1.0 43 +10 +10 1028.0 1015.8
14 24.06 С 2 н/о 10/0
[]
+10.8 -0.9 44 +10 +10 1028.3 1016.1 +14.0
16 24.06 ЮВ 2 н/о н/о +10.3 -0.2 48 +9 +9 1028.3 1016.1
17 24.06 ЮВ 3 н/о 10/0
[]
+10.0 -0.2 49 +9 +9 1028.6 1016.4
19 24.06 штиль 0 н/о н/о +7.8 +0.1 58 +7 +7 1028.7 1016.5
20 24.06 В 3 н/о 4/0
[]
+8.8 -0.2 53 +7 +7 1028.4 1016.2
22 24.06 штиль 0 н/о н/о +5.4 -0.4 66 +5 +5 1029.3 1017.1
23 24.06 штиль 0 н/о н/о +8.0 +0.5 59 +8 +8 1029.7 1017.5
01 25.06 СВ 4 н/о н/о +15.0 -0.7 34 +14 +14 1030.0 1017.8

 

Местоположение метеостанции Олимпик Дэм (Южная Австралия, Австралия): широта -30.48 долгота 136.88 высота над уровнем моря 100 м.

В архиве по умолчанию представлена погода в Олимпик Дэм за последнюю неделю. Архивные данные за месяц целиком и за предыдущие месяцы, начиная с января 2011 года, Вы можете получить, выбрав интересующий диапазон дат из раскрывающегося списка и нажав кнопку "Ввод!".


*Определитесь, кто Вы:
робот инопланетянин человек

Внимание! Время в таблицах - всемирное. Для получения местного времени необходимо прибавить поправку, которая равна 9.5 ч.

Смотрите также архив погоды в соседних городах и на ближайших метеорологических станциях:

Погода на Аэродроме Вумера (Южная Австралия, Австралия) (75 км)
Погода в Марри (Южная Австралия, Австралия) (146 км)
Погода в Ли-Крике (Южная Австралия, Австралия) (148 км)
Погода в Таркуле (Южная Австралия, Австралия) (222 км)
Погода в Порт Огаста (Южная Австралия, Австралия) (240 км)
Погода в Кубер-Педи (Южная Австралия, Австралия) (264 км)
Погода в Уиолле (Южная Австралия, Австралия) (294 км)
Погода в Миннипа Пирса (Южная Австралия, Австралия) (310 км)
Погода в Уудинне (Южная Австралия, Австралия) (316 км)
Погода в Юнте (Южная Австралия, Австралия) (345 км)

Пояснения к столбцам:

Ветер - указаны скорость ветра в м/с - средняя за 10 мин, порывы в срок и между сроками (в фигурных скобках) и направление, откуда дует ветер: С - северный, СВ - северо-восточный, В - восточный, ЮВ - юго-восточный, Ю - южный, ЮЗ - юго-западный, З - западный, СЗ - северо-западный.
Видимость - горизонтальная дальность видимости в метрах или километрах. При видимости от 1 до 10 км при отсутствии осадков обычно наблюдается дымка, при ухудшении видимости до 1 км и менее - туман. В сухую погоду видимость может ухудшаться дымом, пылью или мглою.
Явления - указаны атмосферные явления, наблюдавшиеся в срок или в последний час перед сроком; фигурными скобками обозначены явления, наблюдавшиеся между сроками (за 1-3 часа до срока); квадратными скобками обозначены град или гололедные отложения с указанием их диаметра в мм.
Облачность - указаны через наклонную черту общая и нижняя облачность в баллах и высота нижней границы облаков в метрах; квадратными скобками обозначены формы облаков: Ci - перистые, Cs - перисто-слоистые, Cc - перисто-кучевые, Ac - высококучевые, As - высокослоистые, Sc - слоисто-кучевые, Ns - слоисто-дождевые, Cu - кучевые, Cb - кучево-дождевые. Подробнее классификацию облаков см. в Атласе облаков (PDF).
T - Температура воздуха - температура, измеренная на высоте 2 м над землей.
Td - Температура точки росы - температура, при понижении до которой содержащийся в воздухе водяной пар достигнет насыщения.
f - Относительная влажность воздуха - влажноcть воздуха, измеренная на высоте 2 м над землей.
Te - Эффективная температура - температура, которую ощущает одетый по сезону человек в тени. Характеристика душности погоды. При расчете учитывается влияние влажности воздуха и скорости ветра на теплоощущения человека.
Tes - Эффективная температура на солнце - температура, которую ощущает человек, с поправкой на солнечный нагрев. Характеристика знойности погоды. Зависит от высоты солнца над горизонтом, облачности и скорости ветра. Ночью, в пасмурную погоду, а также при ветре 12 м/с и более поправка равна нулю.
P - Атмосферное давление - приведенное к уровню моря атмосферное давление.
Po - Атмосферное давление - измеренное на уровне метеостанции атмосферное давление.
Tmin - Минимальная температура - минимум температуры воздуха на высоте 2 м над землей.
Tmax - Максимальная температура - максимум температуры воздуха на высоте 2 м над землей.
R - Количество осадков - Количество выпавших осадков за период времени, мм. При наведении курсора мыши на число - период времени, за который выпало указанное количество осадков.
R24 - Количество осадков - Количество выпавших осадков за 24 часа, мм.
S - Снежный покров - Высота снежного покрова, см. При наведении курсора мыши на число - состояние снежного покрова и степень покрытия местности в баллах.